TimeEDT,TemperatureF,Dew PointF,Humidity,Sea Level PressureIn,VisibilityMPH,Wind Direction,Wind SpeedMPH,Gust SpeedMPH,PrecipitationIn,Events,Conditions,WindDirDegrees,DateUTC
12:51 AM,66.0,62.1,87,29.96,10.0,South,3.5,-,N/A,,Overcast,170,2013-08-01 04:51:00
1:26 AM,66.2,62.6,88,29.96,10.0,South,3.5,-,N/A,,Overcast,170,2013-08-01 05:26:00
1:51 AM,66.0,62.1,87,29.95,10.0,SSW,3.5,-,N/A,,Overcast,200,2013-08-01 05:51:00
2:24 AM,64.4,62.6,94,29.93,10.0,SSE,3.5,-,N/A,,Overcast,160,2013-08-01 06:24:00
2:51 AM,66.0,62.1,87,29.93,10.0,SSW,3.5,-,N/A,,Overcast,200,2013-08-01 06:51:00
3:39 AM,66.2,62.6,88,29.91,10.0,SSW,4.6,-,N/A,,Overcast,210,2013-08-01 07:39:00
3:51 AM,66.0,62.1,87,29.91,10.0,SW,4.6,-,N/A,,Overcast,220,2013-08-01 07:51:00
4:19 AM,66.2,62.6,88,29.90,10.0,SSW,6.9,-,N/A,,Overcast,210,2013-08-01 08:19:00
4:51 AM,66.0,62.1,87,29.90,10.0,SSW,5.8,-,N/A,,Overcast,210,2013-08-01 08:51:00
5:14 AM,66.2,62.6,88,29.90,10.0,SSW,4.6,-,0.00,,Light Drizzle,210,2013-08-01 09:14:00
5:29 AM,66.2,62.6,88,29.89,7.0,SSW,5.8,-,0.00,,Light Drizzle,210,2013-08-01 09:29:00
5:51 AM,66.0,63.0,90,29.89,7.0,SSW,5.8,-,0.00,,Light Drizzle,210,2013-08-01 09:51:00
6:10 AM,66.2,62.6,88,29.89,2.0,SSW,4.6,-,0.00,Rain,Light Rain,210,2013-08-01 10:10:00
6:24 AM,66.2,64.4,94,29.89,1.0,SSW,4.6,-,0.04,Rain,Rain,200,2013-08-01 10:24:00
6:38 AM,66.2,64.4,94,29.89,2.0,SSW,3.5,-,0.12,Rain,Light Rain,200,2013-08-01 10:38:00
6:51 AM,66.0,64.0,93,29.90,2.0,SSW,3.5,-,0.13,,Light Drizzle,200,2013-08-01 10:51:00
7:51 AM,66.9,64.0,90,29.91,2.0,WSW,6.9,-,0.00,,Light Drizzle,240,2013-08-01 11:51:00
8:33 AM,66.2,64.4,94,29.92,6.0,West,6.9,-,0.00,,Overcast,260,2013-08-01 12:33:00
8:51 AM,68.0,64.9,90,29.92,8.0,West,8.1,-,0.00,,Overcast,270,2013-08-01 12:51:00
9:17 AM,68.0,64.4,88,29.92,10.0,West,8.1,-,N/A,,Overcast,270,2013-08-01 13:17:00
9:51 AM,69.1,64.9,87,29.92,10.0,West,6.9,-,N/A,,Overcast,280,2013-08-01 13:51:00
10:51 AM,72.0,64.0,76,29.92,10.0,WNW,10.4,-,N/A,,Mostly Cloudy,290,2013-08-01 14:51:00
11:30 AM,73.4,62.6,69,29.92,10.0,WNW,10.4,-,N/A,,Mostly Cloudy,290,2013-08-01 15:30:00
11:51 AM,73.9,62.1,66,29.92,10.0,WNW,13.8,18.4,N/A,,Mostly Cloudy,290,2013-08-01 15:51:00
12:51 PM,75.9,60.1,58,29.92,10.0,NNW,9.2,-,N/A,,Scattered Clouds,330,2013-08-01 16:51:00
1:51 PM,78.1,59.0,52,29.91,10.0,NW,9.2,17.3,N/A,,Scattered Clouds,310,2013-08-01 17:51:00
2:51 PM,79.0,59.0,50,29.91,10.0,NNW,12.7,20.7,N/A,,Scattered Clouds,330,2013-08-01 18:51:00
3:51 PM,79.0,57.9,48,29.89,10.0,NNW,13.8,-,N/A,,Scattered Clouds,330,2013-08-01 19:51:00
4:51 PM,80.1,59.0,48,29.89,10.0,NW,13.8,-,N/A,,Scattered Clouds,320,2013-08-01 20:51:00
5:51 PM,79.0,57.0,47,29.89,10.0,West,13.8,-,N/A,,Scattered Clouds,280,2013-08-01 21:51:00
6:51 PM,78.1,55.9,46,29.91,10.0,West,10.4,-,N/A,,Scattered Clouds,280,2013-08-01 22:51:00
7:51 PM,75.9,57.9,54,29.92,10.0,NW,8.1,-,N/A,,Mostly Cloudy,310,2013-08-01 23:51:00
8:51 PM,72.0,57.0,59,29.93,10.0,West,4.6,-,N/A,,Mostly Cloudy,280,2013-08-02 00:51:00
9:51 PM,70.0,57.0,63,29.93,10.0,NW,4.6,-,N/A,,Mostly Cloudy,310,2013-08-02 01:51:00
10:51 PM,66.9,57.9,73,29.95,10.0,WNW,3.5,-,N/A,,Scattered Clouds,290,2013-08-02 02:51:00
11:51 PM,64.9,57.0,75,29.96,10.0,West,3.5,-,N/A,,Scattered Clouds,280,2013-08-02 03:51:00